Grand Island, NE

1:54 AM CDT on June 26, 2017 (GMT -0500)
Central Nebraska Regional

Weather History for KGRI - October, 2011

Change the Weather History Date:

Wednesday, October 5, 2011

  Actual Average Record
Temperature  
Mean Temperature 69 °F 57 °F  
Max Temperature 83 °F 70 °F 96 °F (1947)
Min Temperature 55 °F 44 °F 25 °F (1952)
Degree Days  
Heating Degree Days 0 9  
Month to date heating degree days 4 42  
Since 1 July heating degree days 165 157  
Cooling Degree Days 4 1  
Month to date cooling degree days 13 5  
Year to date cooling degree days 1101 1028  
Growing Degree Days 18 (Base 50)    
Moisture  
Dew Point 40 °F    
Average Humidity 41    
Maximum Humidity 61    
Minimum Humidity 20    
Precipitation  
Precipitation 0.00 in 0.07 in 1.92 in (1908)
Month to date precipitation 0.00 0.35  
Year to date precipitation 23.64 23.35  
Snow  
Snow 0.00 in 0.10 in - ()
Month to date snowfall 0.0 0.1  
Since 1 July snowfall 0.0 0.2  
Since 1 September snowfall 0.0 0.2  
Snow Depth 0.00 in    
Sea Level Pressure  
Sea Level Pressure 29.94 in    
Wind  
Wind Speed 17 mph (SSE)    
Max Wind Speed 30 mph    
Max Gust Speed 38 mph    
Visibility 10 miles    
Events      
T = Trace of Precipitation, MM = Missing Value Source: NWS Daily Summary

Daily Weather History Graph

Daily Weather History Graph

Search for Another Location

Airport or City:

Trip Planner

Search our weather history database for the weather conditions in past years. The results will help you decide how hot, cold, wet, or windy it might be!

Date:

Astronomy

Oct. 05, 2011 Rise Set
Actual Time 7:33 AM CDT 7:08 PM CDT
Civil Twilight 7:06 AM CDT 7:36 PM CDT
Nautical Twilight 6:34 AM CDT 8:08 PM CDT
Astronomical Twilight 6:02 AM CDT 8:40 PM CDT
Moon 3:52 PM CDT (10/5) 1:18 AM CDT (10/5)
Length of Visible Light 12h 30m
Length of Day
11h 35m
Waxing Gibbous, 66% of the Moon is Illuminated
Oct 5
Waxing Gibbous
Oct 11
Full
Oct 19
Last Quarter
Oct 26
New
Nov 2
First Quarter

Hourly Weather History & Observations

Time (CDT) Temp. Dew Point Humidity Pressure Visibility Wind Dir Wind Speed Gust Speed Precip Events Conditions
12:53 AM 66.9 °F 43.0 °F 42% 30.00 in 10.0 mi South 13.8 mph - N/A   Clear
1:53 AM 64.9 °F 43.0 °F 45% 30.00 in 10.0 mi South 12.7 mph - N/A   Clear
2:53 AM 64.0 °F 43.0 °F 46% 29.99 in 10.0 mi South 12.7 mph - N/A   Clear
3:53 AM 60.1 °F 43.0 °F 53% 29.98 in 10.0 mi South 10.4 mph - N/A   Clear
4:53 AM 59.0 °F 43.0 °F 55% 29.98 in 10.0 mi South 10.4 mph - N/A   Clear
5:53 AM 57.0 °F 43.0 °F 59% 29.99 in 10.0 mi South 11.5 mph - N/A   Clear
6:53 AM 55.9 °F 42.1 °F 60% 29.99 in 10.0 mi South 12.7 mph - N/A   Clear
7:53 AM 55.0 °F 41.0 °F 59% 29.99 in 10.0 mi South 12.7 mph - N/A   Clear
8:53 AM 60.1 °F 42.1 °F 51% 29.99 in 10.0 mi South 13.8 mph - N/A   Clear
9:53 AM 66.0 °F 41.0 °F 40% 29.99 in 10.0 mi South 13.8 mph - N/A   Clear
10:53 AM 71.6 °F 39.2 °F 31% 30.02 in 10.0 mi South 16.1 mph - N/A   Clear
11:53 AM 78.1 °F 37.9 °F 24% 29.96 in 10.0 mi South 18.4 mph 25.3 mph N/A   Clear
12:53 PM 81.0 °F 37.0 °F 21% 29.94 in 10.0 mi South 21.9 mph - N/A   Clear
1:53 PM 82.0 °F 37.0 °F 20% 29.90 in 10.0 mi SSE 23.0 mph 35.7 mph N/A   Clear
2:53 PM 82.0 °F 37.0 °F 20% 29.89 in 10.0 mi SSE 25.3 mph 34.5 mph N/A   Clear
3:53 PM 82.4 °F 37.4 °F 20% 29.91 in 10.0 mi South 21.9 mph 32.2 mph N/A   Clear
4:53 PM 81.0 °F 39.0 °F 22% 29.87 in 10.0 mi SSE 21.9 mph 34.5 mph N/A   Clear
5:53 PM 78.1 °F 36.0 °F 22% 29.87 in 10.0 mi SSE 23.0 mph 28.8 mph N/A   Clear
6:53 PM 73.9 °F 39.0 °F 28% 29.87 in 10.0 mi SE 16.1 mph 21.9 mph N/A   Clear
7:53 PM 73.0 °F 39.9 °F 30% 29.87 in 10.0 mi SSE 18.4 mph 25.3 mph N/A   Clear
8:53 PM 71.1 °F 41.0 °F 34% 29.88 in 10.0 mi SSE 17.3 mph 23.0 mph N/A   Clear
9:53 PM 69.1 °F 41.0 °F 36% 29.88 in 10.0 mi SSE 18.4 mph 27.6 mph N/A   Clear
10:53 PM 68.0 °F 39.9 °F 36% 29.88 in 10.0 mi SSE 19.6 mph 25.3 mph N/A   Scattered Clouds
11:53 PM 66.9 °F 41.0 °F 39% 29.87 in 10.0 mi SSE 16.1 mph 27.6 mph N/A   Clear